ETD576 KDTW-KDSM

Flight info

Callsign ETD576
Flight time N/A
Altitude 38000
Route TNU310030 KDSM
Aircraft A346/H-SDE2E3FGHIJ3J4J5M1RWXY/LB1D1

Departure

Time N/A
Airport Detroit Metropolitan Wayne County Airport (KDTW)

Arrival

Time 2026-04-22 06:38
Airport Des Moines International Airport (KDSM)
Time Latitude Longitude Altitude Speed Heading
2026-04-22 06:24 42.08979 -93.65334 28946 ft 377 kts 225°
2026-04-22 06:24 42.06721 -93.67239 28480 ft 385 kts 210°
2026-04-22 06:24 42.04169 -93.68372 28074 ft 391 kts 192°
2026-04-22 06:25 42.01445 -93.68559 27734 ft 391 kts 182°
2026-04-22 06:25 41.98741 -93.68460 27392 ft 387 kts 181°
2026-04-22 06:25 41.96070 -93.68321 27004 ft 384 kts 181°
2026-04-22 06:25 41.93386 -93.68172 26586 ft 381 kts 181°
2026-04-22 06:26 41.90773 -93.68025 26181 ft 379 kts 181°
2026-04-22 06:26 41.88123 -93.67879 25759 ft 377 kts 181°
2026-04-22 06:26 41.85529 -93.67738 25345 ft 375 kts 181°
2026-04-22 06:26 41.82951 -93.67600 24933 ft 372 kts 180°
2026-04-22 06:27 41.80349 -93.67360 24505 ft 373 kts 170°
2026-04-22 06:27 41.77938 -93.66165 23957 ft 379 kts 148°
2026-04-22 06:27 41.75913 -93.63904 23395 ft 381 kts 133°
2026-04-22 06:27 41.74110 -93.61279 22839 ft 383 kts 130°
2026-04-22 06:28 41.72346 -93.58581 22287 ft 384 kts 130°
2026-04-22 06:28 41.70594 -93.55878 21754 ft 386 kts 129°
2026-04-22 06:28 41.68832 -93.53159 21237 ft 387 kts 129°
2026-04-22 06:28 41.67084 -93.50459 20732 ft 387 kts 129°
2026-04-22 06:29 41.65329 -93.47752 20250 ft 387 kts 129°
2026-04-22 06:29 41.63570 -93.45045 19803 ft 385 kts 129°
2026-04-22 06:29 41.61804 -93.42330 19368 ft 383 kts 129°
2026-04-22 06:29 41.60085 -93.39657 18941 ft 381 kts 126°
2026-04-22 06:30 41.58782 -93.36646 18294 ft 376 kts 105°
2026-04-22 06:30 41.58326 -93.33276 17530 ft 365 kts 84°
2026-04-22 06:30 41.58775 -93.30029 16818 ft 350 kts 62°
2026-04-22 06:30 41.60004 -93.27336 16175 ft 333 kts 45°
2026-04-22 06:31 41.61520 -93.25085 15596 ft 324 kts 41°
2026-04-22 06:31 41.63094 -93.22968 14983 ft 315 kts 34°
2026-04-22 06:31 41.64922 -93.21609 14337 ft 298 kts 10°
2026-04-22 06:31 41.66923 -93.21400 13766 ft 283 kts 347°
2026-04-22 06:32 41.68705 -93.22321 13178 ft 273 kts 322°
2026-04-22 06:32 41.69955 -93.24178 12504 ft 274 kts 297°
2026-04-22 06:32 41.70407 -93.26616 11851 ft 279 kts 271°
2026-04-22 06:32 41.69929 -93.29125 11311 ft 283 kts 244°
2026-04-22 06:33 41.68645 -93.31116 10798 ft 287 kts 225°
2026-04-22 06:33 41.67247 -93.32976 9960 ft 286 kts 244°
2026-04-22 06:33 41.66562 -93.35408 9247 ft 274 kts 268°
2026-04-22 06:33 41.66326 -93.37859 8793 ft 267 kts 258°
2026-04-22 06:34 41.65783 -93.40224 8175 ft 266 kts 258°
2026-04-22 06:34 41.65275 -93.42581 7607 ft 262 kts 258°
2026-04-22 06:34 41.64796 -93.44888 7073 ft 258 kts 261°
2026-04-22 06:34 41.64643 -93.47244 6526 ft 251 kts 283°
2026-04-22 06:35 41.65061 -93.49445 6053 ft 244 kts 283°
2026-04-22 06:35 41.65077 -93.51694 5357 ft 248 kts 252°
2026-04-22 06:35 41.64205 -93.53631 4444 ft 254 kts 222°
2026-04-22 06:35 41.62637 -93.54743 3526 ft 262 kts 198°
2026-04-22 06:36 41.60908 -93.55509 2872 ft 263 kts 200°
2026-04-22 06:36 41.59224 -93.56276 2490 ft 248 kts 206°
2026-04-22 06:36 41.57860 -93.57519 2112 ft 233 kts 227°
2026-04-22 06:36 41.56884 -93.59181 1841 ft 225 kts 240°
2026-04-22 06:37 41.56048 -93.60953 1601 ft 221 kts 240°
2026-04-22 06:37 41.55198 -93.62560 1330 ft 203 kts 235°
2026-04-22 06:37 41.54387 -93.63985 1171 ft 182 kts 235°
2026-04-22 06:37 41.53672 -93.65279 983 ft 165 kts 234°
2026-04-22 06:38 41.53072 -93.66368 924 ft 110 kts 231°
2026-04-22 06:38 41.52792 -93.66885 909 ft 42 kts 232°
2026-04-22 06:38 41.52626 -93.67185 917 ft 37 kts 234°
2026-04-22 06:38 41.52477 -93.67458 917 ft 35 kts 233°
2026-04-22 06:39 41.52340 -93.67653 918 ft 21 kts 184°
2026-04-22 06:39 41.52290 -93.67568 923 ft 8 kts 61°
2026-04-22 06:39 41.52295 -93.67553 923 ft 0 kts 62°
2026-04-22 06:39 41.52296 -93.67552 923 ft 0 kts 62°
2026-04-22 06:40 41.52296 -93.67551 923 ft 0 kts 62°
2026-04-22 06:40 41.52321 -93.67495 925 ft 27 kts 57°
2026-04-22 06:40 41.52488 -93.67184 927 ft 50 kts 53°
2026-04-22 06:40 41.52732 -93.66738 917 ft 68 kts 54°
2026-04-22 06:41 41.53038 -93.66187 935 ft 79 kts 54°
2026-04-22 06:41 41.53366 -93.65587 950 ft 73 kts 54°
2026-04-22 06:41 41.53580 -93.65208 949 ft 13 kts 54°
2026-04-22 06:41 41.53582 -93.65201 948 ft 0 kts 60°
2026-04-22 06:42 41.53583 -93.65199 948 ft 0 kts 68°
2026-04-22 06:42 41.53579 -93.65180 948 ft 12 kts 121°
2026-04-22 06:42 41.53461 -93.65200 950 ft 20 kts 209°
2026-04-22 06:42 41.53330 -93.65239 953 ft 18 kts 172°
2026-04-22 06:43 41.53196 -93.65163 955 ft 27 kts 143°
2026-04-22 06:43 41.53124 -93.65013 957 ft 11 kts 89°
2026-04-22 06:43 41.53145 -93.64946 956 ft 7 kts 45°
2026-04-22 06:43 41.53199 -93.64920 953 ft 13 kts
2026-04-22 06:44 41.53244 -93.64929 951 ft 0 kts 331°